When you browse on this site, cookies collect data to enhance your experience and personalize the content and advertising you see.
Visit our Privacy Policy to learn more. By continuing to use the site, you agree to this use of cookies and data.
  • en France
  • Liste des pays
  • À 7 jours
  • Température de l'eau
  • Carte météo
  • Widgets météo
  • user-avatar
    Se connecter

    Météo par heure à Quito

    Ce jour, 22 Février, Samedi

    Heure Température Précipitation Vent Pression Humidité
    00:00 +18°C° 1.8 mm 3 m/s 621 mmHg 94%
    01:00 +18°C° 1.8 mm 3 m/s 621 mmHg 94%
    02:00 +18°C° 0.9 mm 2 m/s 621 mmHg 94%
    03:00 +17°C° 0.9 mm 2 m/s 621 mmHg 95%
    04:00 +18°C° 0.9 mm 1 m/s 621 mmHg 95%
    05:00 +18°C° 1.2 mm 1 m/s 621 mmHg 96%
    06:00 +18°C° 1.2 mm 1 m/s 622 mmHg 96%
    07:00 +18°C° 1.2 mm 1 m/s 623 mmHg 97%
    08:00 +19°C° 3.7 mm 1 m/s 623 mmHg 97%
    09:00 +18°C° 3.7 mm 2 m/s 623 mmHg 98%
    10:00 +18°C° 3.7 mm 2 m/s 623 mmHg 98%
    11:00 +18°C° 2.1 mm 2 m/s 623 mmHg 95%
    12:00 +19°C° 2.1 mm 2 m/s 622 mmHg 92%
    13:00 +20°C° 2.1 mm 2 m/s 622 mmHg 89%
    14:00 +20°C° 0 mm 2 m/s 621 mmHg 87%
    15:00 +21°C° 0 mm 2 m/s 621 mmHg 86%
    16:00 +21°C° 0 mm 2 m/s 620 mmHg 84%
    17:00 +21°C° 0.1 mm 1 m/s 620 mmHg 87%
    18:00 +20°C° 0.1 mm 1 m/s 621 mmHg 91%
    19:00 +20°C° 0.1 mm 1 m/s 621 mmHg 94%
    20:00 +19°C° 0 mm 1 m/s 621 mmHg 93%
    21:00 +19°C° 0 mm 1 m/s 621 mmHg 92%
    22:00 +19°C° 0 mm 1 m/s 621 mmHg 91%
    23:00 +18°C° 0 mm 1 m/s 621 mmHg 91%

    Demain, 23 Février, Dimanche

    Heure Température Précipitation Vent Pression Humidité
    00:00 +17°C° 0 mm 2 m/s 621 mmHg 91%
    01:00 +17°C° 0 mm 2 m/s 621 mmHg 90%
    02:00 +17°C° 0.1 mm 2 m/s 620 mmHg 90%
    03:00 +18°C° 0.1 mm 2 m/s 620 mmHg 89%
    04:00 +18°C° 0.1 mm 2 m/s 620 mmHg 89%
    05:00 +18°C° 0.6 mm 2 m/s 621 mmHg 90%
    06:00 +18°C° 0.6 mm 2 m/s 621 mmHg 92%
    07:00 +19°C° 0.6 mm 1 m/s 622 mmHg 94%
    08:00 +20°C° 1.4 mm 2 m/s 622 mmHg 89%
    09:00 +21°C° 1.4 mm 2 m/s 623 mmHg 85%
    10:00 +24°C° 1.4 mm 3 m/s 623 mmHg 80%
    11:00 +24°C° 1.2 mm 3 m/s 623 mmHg 77%
    12:00 +25°C° 1.2 mm 3 m/s 622 mmHg 75%
    13:00 +25°C° 1.2 mm 3 m/s 622 mmHg 72%
    14:00 +25°C° 0.6 mm 3 m/s 622 mmHg 74%
    15:00 +25°C° 0.6 mm 3 m/s 621 mmHg 75%
    16:00 +24°C° 0.6 mm 3 m/s 621 mmHg 77%
    17:00 +22°C° 1 mm 3 m/s 621 mmHg 82%
    18:00 +21°C° 1 mm 2 m/s 621 mmHg 86%
    19:00 +19°C° 1 mm 2 m/s 621 mmHg 91%
    20:00 +19°C° 0.3 mm 2 m/s 621 mmHg 92%
    21:00 +18°C° 0.3 mm 2 m/s 622 mmHg 92%
    22:00 +18°C° 0.3 mm 2 m/s 622 mmHg 93%
    23:00 +18°C° 0 mm 2 m/s 622 mmHg 93%

    Après-demain, 24 Février, Lundi

    Heure Température Précipitation Vent Pression Humidité
    00:00 +18°C° 0 mm 2 m/s 621 mmHg 93%
    01:00 +17°C° 0 mm 2 m/s 621 mmHg 94%
    02:00 +17°C° 0 mm 2 m/s 621 mmHg 94%
    03:00 +17°C° 0 mm 2 m/s 621 mmHg 94%
    04:00 +17°C° 0 mm 2 m/s 621 mmHg 94%
    05:00 +18°C° 0.4 mm 1 m/s 621 mmHg 95%
    06:00 +18°C° 0.4 mm 1 m/s 621 mmHg 96%
    07:00 +18°C° 0.4 mm 1 m/s 622 mmHg 97%
    08:00 +18°C° 0.4 mm 1 m/s 622 mmHg 96%
    09:00 +19°C° 0.4 mm 1 m/s 622 mmHg 94%
    10:00 +18°C° 0.4 mm 2 m/s 623 mmHg 93%
    11:00 +20°C° 0.8 mm 1 m/s 623 mmHg 90%
    12:00 +21°C° 0.8 mm 1 m/s 623 mmHg 86%
    13:00 +23°C° 0.8 mm 1 m/s 622 mmHg 82%
    14:00 +22°C° 0.9 mm 1 m/s 622 mmHg 85%
    15:00 +21°C° 0.9 mm 1 m/s 621 mmHg 87%
    16:00 +19°C° 0.9 mm 0 m/s 620 mmHg 90%
    17:00 +18°C° 0.4 mm 0 m/s 621 mmHg 90%
    18:00 +20°C° 0.4 mm 1 m/s 621 mmHg 91%
    19:00 +19°C° 0.4 mm 1 m/s 621 mmHg 91%
    20:00 +19°C° 0.1 mm 1 m/s 621 mmHg 92%
    21:00 +18°C° 0.1 mm 1 m/s 622 mmHg 92%
    22:00 +17°C° 0.1 mm 2 m/s 622 mmHg 93%
    23:00 +17°C° 0 mm 2 m/s 622 mmHg 93%

    25 Février, Mardi

    Heure Température Précipitation Vent Pression Humidité
    00:00 +17°C° 0 mm 2 m/s 621 mmHg 94%
    01:00 +16°C° 0 mm 2 m/s 621 mmHg 94%
    02:00 +16°C° 0 mm 2 m/s 621 mmHg 95%
    03:00 +16°C° 0 mm 2 m/s 621 mmHg 95%
    04:00 +15°C° 0 mm 2 m/s 620 mmHg 96%
    05:00 +16°C° 0 mm 2 m/s 621 mmHg 95%
    06:00 +16°C° 0 mm 2 m/s 621 mmHg 94%
    07:00 +17°C° 0 mm 2 m/s 622 mmHg 93%
    08:00 +19°C° 0.5 mm 2 m/s 622 mmHg 85%
    09:00 +22°C° 0.5 mm 1 m/s 623 mmHg 78%
    10:00 +25°C° 0.5 mm 1 m/s 624 mmHg 71%
    11:00 +25°C° 0.6 mm 1 m/s 623 mmHg 67%
    12:00 +26°C° 0.6 mm 1 m/s 623 mmHg 64%
    13:00 +27°C° 0.6 mm 1 m/s 623 mmHg 60%
    14:00 +26°C° 1.3 mm 1 m/s 622 mmHg 66%
    15:00 +25°C° 1.3 mm 1 m/s 621 mmHg 73%
    16:00 +24°C° 1.3 mm 1 m/s 620 mmHg 79%
    17:00 +22°C° 0.6 mm 1 m/s 620 mmHg 81%
    18:00 +21°C° 0.6 mm 1 m/s 620 mmHg 84%
    19:00 +20°C° 0.6 mm 1 m/s 621 mmHg 86%
    20:00 +19°C° 0 mm 1 m/s 621 mmHg 87%
    21:00 +19°C° 0 mm 1 m/s 621 mmHg 88%
    22:00 +19°C° 0 mm 1 m/s 622 mmHg 89%
    23:00 +18°C° 0 mm 1 m/s 621 mmHg 89%

    26 Février, Mercredi

    Heure Température Précipitation Vent Pression Humidité
    00:00 +18°C° 0 mm 1 m/s 621 mmHg 90%
    01:00 +18°C° 0 mm 1 m/s 621 mmHg 91%
    02:00 +16°C° 0 mm 1 m/s 620 mmHg 92%
    03:00 +16°C° 0 mm 1 m/s 620 mmHg 92%
    04:00 +15°C° 0 mm 0 m/s 620 mmHg 93%
    05:00 +16°C° 0 mm 1 m/s 621 mmHg 92%
    06:00 +18°C° 0 mm 1 m/s 621 mmHg 90%
    07:00 +19°C° 0 mm 1 m/s 622 mmHg 89%
    08:00 +21°C° 0 mm 1 m/s 623 mmHg 79%
    09:00 +24°C° 0 mm 1 m/s 624 mmHg 69%
    10:00 +27°C° 0 mm 1 m/s 624 mmHg 59%
    11:00 +27°C° 0 mm 1 m/s 624 mmHg 55%
    12:00 +28°C° 0 mm 1 m/s 624 mmHg 51%
    13:00 +28°C° 0 mm 1 m/s 623 mmHg 47%
    14:00 +27°C° 0.2 mm 1 m/s 623 mmHg 53%
    15:00 +27°C° 0.2 mm 1 m/s 622 mmHg 59%
    16:00 +26°C° 0.2 mm 1 m/s 621 mmHg 65%
    17:00 +24°C° 0.2 mm 1 m/s 621 mmHg 71%
    18:00 +22°C° 0.2 mm 1 m/s 621 mmHg 78%
    19:00 +20°C° 0.2 mm 1 m/s 620 mmHg 84%
    20:00 +19°C° 0 mm 1 m/s 621 mmHg 85%
    21:00 +19°C° 0 mm 1 m/s 621 mmHg 85%
    22:00 +18°C° 0 mm 1 m/s 621 mmHg 86%
    23:00 +18°C° 0 mm 1 m/s 621 mmHg 87%

    27 Février, Jeudi

    Heure Température Précipitation Vent Pression Humidité
    00:00 +18°C° 0 mm 1 m/s 621 mmHg 88%
    01:00 +18°C° 0 mm 1 m/s 621 mmHg 89%
    02:00 +16°C° 0 mm 1 m/s 621 mmHg 89%
    03:00 +16°C° 0 mm 1 m/s 621 mmHg 90%
    04:00 +16°C° 0 mm 1 m/s 621 mmHg 90%
    05:00 +18°C° 0 mm 1 m/s 621 mmHg 89%
    06:00 +19°C° 0 mm 1 m/s 622 mmHg 87%
    07:00 +19°C° 0 mm 1 m/s 622 mmHg 86%
    08:00 +21°C° 0.2 mm 1 m/s 623 mmHg 77%
    09:00 +24°C° 0.2 mm 1 m/s 624 mmHg 69%
    10:00 +26°C° 0.2 mm 1 m/s 625 mmHg 61%
    11:00 +26°C° 0.2 mm 2 m/s 624 mmHg 59%
    12:00 +27°C° 0.2 mm 2 m/s 624 mmHg 57%
    13:00 +27°C° 0.2 mm 2 m/s 623 mmHg 55%
    14:00 +27°C° 0.4 mm 2 m/s 622 mmHg 57%
    15:00 +26°C° 0.4 mm 1 m/s 622 mmHg 60%
    16:00 +26°C° 0.4 mm 1 m/s 621 mmHg 62%
    17:00 +24°C° 0.3 mm 1 m/s 621 mmHg 68%
    18:00 +22°C° 0.3 mm 1 m/s 621 mmHg 75%
    19:00 +20°C° 0.3 mm 1 m/s 621 mmHg 81%
    20:00 +20°C° 0 mm 1 m/s 621 mmHg 82%
    21:00 +20°C° 0 mm 1 m/s 622 mmHg 83%
    22:00 +19°C° 0 mm 1 m/s 622 mmHg 84%
    23:00 +19°C° 0 mm 1 m/s 622 mmHg 85%
    Voir plus